Weather History for CYMX - July, 2013

Change the Weather History Date:

Thursday, July 25, 2013

  Actual Average Record
Temperature  
Mean Temperature 56 °F -  
Max Temperature 71 °F 75 °F 87 °F (2005)
Min Temperature 42 °F 57 °F 42 °F (2013)
Degree Days  
Heating Degree Days 8    
Growing Degree Days 6 (Base 50)    
Moisture  
Dew Point 48 °F    
Average Humidity 72    
Maximum Humidity 100    
Minimum Humidity 50    
Precipitation  
Precipitation 0.00 in - - ()
Sea Level Pressure  
Sea Level Pressure 30.16 in    
Wind  
Wind Speed 3 mph ()    
Max Wind Speed 12 mph    
Max Gust Speed -    
Averages and records for this station are not official NWS values.
T = Trace of Precipitation, MM = Missing Value Source: Averaged Metar Reports

Daily Weather History Graph

Daily Weather History Graph

Search for Another Location

Airport or City:

Trip Planner

Search our weather history database for the weather conditions in past years. The results will help you decide how hot, cold, wet, or windy it might be!

Date:

Astronomy

Jul. 25, 2013 Rise Set
Actual Time 5:31 AM EDT 8:32 PM EDT
Civil Twilight 4:56 AM EDT 9:07 PM EDT
Nautical Twilight 4:11 AM EDT 9:53 PM EDT
Astronomical Twilight 3:16 AM EDT 10:47 PM EDT
Moon 9:56 PM EDT (7/25) 9:12 AM EDT (7/25)
Length of Visible Light 16h 11m
Length of Day
15h 01m
Waning Gibbous, 88% of the Moon is Illuminated
Jul 25
Waning Gibbous
Jul 29
Last Quarter
Aug 6
New
Aug 14
First Quarter
Aug 20
Full

Hourly Weather History & Observations

Time (EDT) Temp. Windchill Dew Point Humidity Pressure Visibility Wind Dir Wind Speed Gust Speed Precip Events Conditions
12:00 AM 50.0 °F - 46.4 °F 87% 30.09 in 25.0 mi NNE 3.5 mph - N/A   Clear
1:00 AM 46.4 °F - 46.4 °F 100% 30.11 in 25.0 mi Calm Calm - N/A   Clear
2:00 AM 46.4 °F - 44.6 °F 93% 30.12 in 25.0 mi Calm Calm - N/A   Partly Cloudy
3:00 AM 46.4 °F 43.5 °F 44.6 °F 93% 30.13 in 25.0 mi NNE 5.8 mph - N/A   Partly Cloudy
4:00 AM 44.6 °F - 42.8 °F 93% 30.14 in 25.0 mi Calm Calm - N/A   Partly Cloudy
5:00 AM 42.8 °F 41.1 °F 42.8 °F 100% 30.14 in 45.0 mi NW 3.5 mph - N/A   Partly Cloudy
6:00 AM 42.8 °F - 42.8 °F 100% 30.15 in 45.0 mi NW 2.3 mph - N/A   Partly Cloudy
7:00 AM 48.2 °F - 44.6 °F 87% 30.16 in 45.0 mi North 2.3 mph - N/A   Partly Cloudy
8:00 AM 53.6 °F - 48.2 °F 82% 30.18 in 45.0 mi North 3.5 mph - N/A   Partly Cloudy
9:00 AM 59.0 °F - 44.6 °F 59% 30.19 in 45.0 mi NNE 3.5 mph - N/A   Partly Cloudy
10:00 AM 62.6 °F - 48.2 °F 59% 30.20 in 45.0 mi East 4.6 mph - N/A   Partly Cloudy
11:00 AM 62.6 °F - 46.4 °F 55% 30.20 in 45.0 mi NE 11.5 mph - N/A   Partly Cloudy
12:00 PM 66.2 °F - 48.2 °F 52% 30.19 in 45.0 mi East 5.8 mph - N/A   Scattered Clouds
1:00 PM 66.2 °F - 50.0 °F 56% 30.18 in 45.0 mi North 3.5 mph - N/A   Scattered Clouds
2:00 PM 68.0 °F - 50.0 °F 52% 30.17 in 45.0 mi Variable 2.3 mph - N/A   Mostly Cloudy
3:00 PM 71.6 °F - 51.8 °F 50% 30.16 in 45.0 mi ESE 3.5 mph - N/A   Scattered Clouds
4:00 PM 71.6 °F - 51.8 °F 50% 30.15 in 45.0 mi East 5.8 mph - N/A   Partly Cloudy
5:00 PM 71.6 °F - 51.8 °F 50% 30.15 in 45.0 mi East 6.9 mph - N/A   Partly Cloudy
6:00 PM 71.6 °F - 51.8 °F 50% 30.14 in 45.0 mi NNE 3.5 mph - N/A   Partly Cloudy
7:00 PM 69.8 °F - 51.8 °F 53% 30.15 in 45.0 mi South 5.8 mph - N/A   Partly Cloudy
8:00 PM 66.2 °F - 53.6 °F 64% 30.16 in 45.0 mi SE 3.5 mph - N/A   Partly Cloudy
9:00 PM 59.0 °F - 51.8 °F 77% 30.17 in 25.0 mi Calm Calm - N/A   Clear
10:00 PM 57.2 °F - 51.8 °F 82% 30.18 in 25.0 mi Calm Calm - N/A   Clear
11:00 PM 53.6 °F - 51.8 °F 94% 30.17 in 25.0 mi Calm Calm - N/A   Clear